[[{"header":{"parameterUnit":"m.s-1","parameterCategory":1,"la1":30.2991,"la2":30.254,"lo1":-89.0895,"lo2":-89.0444,"dy":0.0017,"dx":0.0017,"nx":28,"ny":28,"refTime":"2023-06-28T21:00:00:Z","depth":0,"parameterNumber":2,"parameterNumberName":"U-component_of_WINDS"},"data":[0,0,0,0,0,0,0,0,0,0,0,0,0,0,0,0,0,0,0,0,0,0,0,0,0,0,0,0,0,0,0,0,0,0,0,0,0,0,0,0,0,0,0,0,0,0,0,0,0,0,0,0,0,0,0,0,0,0,1.7932,1.7932,0,1.7976,1.7977,1.7977,1.7882,1.7879,1.7876,1.7873,1.7925,1.7929,1.7933,0,0,0,0,0,0,0,0,0,0,0,0,0,1.777,1.7773,1.7932,1.7932,1.7933,1.7976,1.7977,1.7977,1.7883,1.7879,1.7875,1.7872,1.7924,1.7929,1.7934,0,0,0,0,0,0,0,0,0,0,0,0,0,1.783,1.7774,1.7932,1.7891,1.7887,1.7976,1.7977,1.7978,1.7884,1.7879,1.7874,1.787,1.7922,1.7928,1.7935,1.8067,0,0,1.7954,1.7957,0,0,0,0,0,0,0,0,1.7827,1.7836,1.7896,1.7894,1.789,1.7919,1.7939,1.8008,1.7885,1.7885,1.7873,1.7868,1.7927,1.7933,1.7952,1.8069,1.8072,1.7955,1.7959,1.7961,1.7963,0,0,0,0,0,0,0,1.7823,1.7834,1.7949,1.7897,1.7893,1.7872,1.7875,1.7951,1.7932,1.7885,1.7878,1.7884,1.7925,1.7946,1.7952,1.8072,1.7954,1.796,1.7964,1.7967,1.8302,1.8307,0,0,0,0,0,0,1.7823,1.7831,1.7948,1.7951,1.7846,1.7878,1.7882,1.7914,1.7931,1.7929,1.7888,1.788,1.7937,1.7945,1.7954,1.8111,1.7961,1.7967,1.7971,1.8297,1.8303,1.8309,0,0,0,0,0,0,1.782,1.7834,1.7946,1.7889,1.7901,1.7886,1.7923,1.7918,1.7938,1.7933,1.793,1.7913,1.7934,1.7945,1.8039,1.8111,1.797,1.7976,1.8291,1.8299,1.8306,1.8426,0,0,0,0,0,0,1.7816,1.7834,1.7883,1.7891,1.7905,1.803,1.7927,1.7922,1.7949,1.7938,1.7955,1.7954,1.7931,1.803,1.8046,1.8117,1.7981,1.8285,1.8295,1.8304,1.8415,1.8436,1.8454,0,0,0,0,0,1.781,1.7916,1.7886,1.79,1.7965,1.8034,1.8043,1.8012,1.7955,1.8005,1.8002,1.7953,1.81,1.8041,1.8057,1.8132,1.828,1.8292,1.8303,1.8406,1.8432,1.8454,0,0,0,0,0,0,1.7919,1.7916,1.7883,1.7994,1.8015,1.8018,1.808,1.804,1.8079,1.8068,1.803,1.8035,1.8138,1.8144,1.8078,1.8261,1.8181,1.8196,1.8254,1.8278,1.8297,1.8295,1.7986,0,0,0,0,0,1.7955,1.8009,1.8005,1.8103,1.8115,1.8096,1.8125,1.8099,1.812,1.813,1.8133,1.8157,1.8208,1.8243,1.829,1.8415,1.8418,1.8474,1.8494,1.851,1.8525,1.8592,1.8617,1.8346,1.8346,1.8346,0,0,1.8032,1.8037,1.8074,1.8125,1.8138,1.8197,1.8104,1.817,1.8214,1.814,1.8229,1.8233,1.8257,1.8368,1.8417,1.8376,1.86,1.8525,1.8538,1.8543,1.8606,1.8632,1.8655,1.8354,1.8353,1.8351,0,0,1.8202,1.8211,1.8294,1.8309,1.8329,1.8316,1.8336,1.8345,1.8344,1.8432,1.8378,1.8431,1.852,1.8539,1.8561,1.8738,1.8696,1.8755,1.8858,1.8924,1.8946,1.8964,1.9029,1.9053,1.8769,1.8769,1.8769,0,1.8296,1.838,1.8342,1.8412,1.8437,1.837,1.8455,1.8472,1.8508,1.8528,1.8481,1.8591,1.8603,1.8718,1.8761,1.878,1.8803,1.8754,1.8945,1.8964,1.8981,1.9042,1.9066,1.8776,1.8775,1.8775,1.8774,0,1.8495,1.8554,1.862,1.8654,1.8686,1.8763,1.8739,1.8776,1.8748,1.874,1.8831,1.8842,1.8891,1.8916,1.889,1.9027,1.9002,1.8951,1.887,1.9014,1.9071,1.9094,1.8786,1.8784,1.8782,1.878,0,0,1.8736,1.8747,1.8772,1.8787,1.8805,1.8851,1.8926,1.8971,1.9005,1.9031,1.9095,1.9171,1.9124,1.9149,1.9124,1.9182,1.9323,1.9124,1.9124,1.9162,1.9477,1.9516,1.9544,1.9294,1.9298,1.9302,1.9475,0,1.8906,1.9032,1.9,1.9127,1.9183,1.912,1.9185,1.9204,1.9198,1.9246,1.924,1.9295,1.9228,1.9243,1.9297,1.9294,1.9386,1.9281,1.9354,1.9357,1.9352,1.9573,1.9615,1.9779,1.9497,1.9501,1.9504,0,1.912,1.9154,1.9286,1.9294,1.9316,1.9375,1.9415,1.946,1.9481,1.9473,1.95,1.9464,1.9539,1.9456,1.956,1.949,1.9517,1.9521,1.9526,1.9533,1.9441,1.9588,1.983,1.9855,1.9538,1.9535,1.9533,0,1.9285,1.9363,1.9452,1.9467,1.9479,1.9522,1.9529,1.9545,1.9574,1.9609,1.9628,1.9672,1.9696,1.9732,1.9709,1.965,1.9818,1.9732,1.9815,1.9816,1.9855,1.9853,2.0107,1.9871,1.987,1.987,1.9869,0,1.9479,1.9563,1.9526,1.9582,1.9674,1.9636,1.9729,1.9729,1.9744,1.9799,1.9747,1.9801,1.9766,1.9817,1.98,1.989,1.9901,1.9898,1.9893,1.9904,1.9904,1.9923,1.9912,1.9876,1.9875,1.9874,1.9872,0,1.9679,1.9658,1.9751,1.9754,1.9757,1.9825,1.9828,1.988,1.987,1.9941,1.9955,1.994,1.9998,1.9977,2.0039,2.0027,2.0143,2.0122,2.0135,2.0131,2.0216,2.0209,2.0491,2.0526,2.0266,2.0269,2.0271,0,1.9805,1.9868,1.9877,1.9909,1.992,1.9973,2.0002,1.9968,2.0001,2.0029,2.0078,2.013,2.017,2.0265,2.0261,2.0308,2.0289,2.0384,2.0296,2.0305,2.0292,2.0289,2.0296,2.0403,2.0406,2.0409,2.041,0,2.0031,2.0017,2.0061,2.0101,2.0137,2.0167,2.0193,2.0223,2.019,2.023,2.0287,2.0318,2.038,2.0434,2.0476,2.0485,2.0444,2.0438,2.046,2.0473,2.0479,2.0478,2.0186,2.0432,2.043,2.0429,2.0427,2.0426,2.0199,2.0252,2.0267,2.0317,2.0332,2.0358,2.0407,2.0402,2.0448,2.0495,2.0472,2.0539,2.0558,2.061,2.0625,2.0677,2.0641,2.0672,2.0681,2.0689,2.0701,2.0469,2.0685,2.0684,2.0684,2.0683,2.0683,0,2.0424,2.043,2.0476,2.0513,2.0553,2.0508,2.0534,2.0571,2.063,2.065,2.069,2.0756,2.0807,2.0806,2.0854,2.0896,2.0879,2.091,2.0908,2.0911,2.073,2.0707,2.0924,2.0924,2.0924,2.0924,2.0924,2.0924,2.0546,2.0633,2.0621,2.0716,2.0722,2.0785,2.0804,2.0828,2.0844,2.0919,2.0961,2.0959,2.0971,2.1019,2.1065,2.1063,2.1084,2.1123,2.1115,2.0947,2.0923,2.0901,2.0879,2.1128,2.1128,2.1291,2.1293,2.1294]},{"header":{"parameterUnit":"m.s-1","parameterCategory":1,"la1":30.2991,"la2":30.254,"lo1":-89.0895,"lo2":-89.0444,"dy":0.0017,"dx":0.0017,"nx":28,"ny":28,"refTime":"2023-06-28T21:00:00:Z","depth":0,"parameterNumber":3,"parameterNumberName":"V-component_of_WINDS"},"data":[0,0,0,0,0,0,0,0,0,0,0,0,0,0,0,0,0,0,0,0,0,0,0,0,0,0,0,0,0,0,0,0,0,0,0,0,0,0,0,0,0,0,0,0,0,0,0,0,0,0,0,0,0,0,0,0,0,0,2.368,2.3682,0,2.3843,2.3845,2.3847,2.3816,2.3813,2.381,2.3808,2.3973,2.3979,2.3987,0,0,0,0,0,0,0,0,0,0,0,0,0,2.3336,2.3343,2.368,2.3682,2.3684,2.3843,2.3845,2.3847,2.3817,2.3813,2.381,2.3806,2.397,2.3979,2.3987,0,0,0,0,0,0,0,0,0,0,0,0,0,2.3491,2.3345,2.3679,2.3688,2.369,2.3843,2.3845,2.3848,2.3818,2.3813,2.3809,2.3805,2.3967,2.3978,2.3988,2.4142,0,0,2.4021,2.4026,0,0,0,0,0,0,0,0,2.3482,2.3504,2.3685,2.3688,2.369,2.3805,2.3785,2.3947,2.3819,2.3769,2.3808,2.3803,2.392,2.3934,2.3975,2.415,2.4157,2.4022,2.4028,2.4033,2.4036,0,0,0,0,0,0,0,2.3472,2.3497,2.3744,2.3687,2.3691,2.3682,2.3699,2.3815,2.3867,2.3773,2.3771,2.3791,2.3921,2.3964,2.3978,2.4159,2.4022,2.4031,2.4038,2.4042,2.4463,2.4467,0,0,0,0,0,0,2.3459,2.3488,2.3739,2.3749,2.3574,2.3691,2.3711,2.3773,2.3866,2.3876,2.3795,2.3789,2.3948,2.3966,2.3984,2.4166,2.4033,2.4043,2.4049,2.4458,2.4464,2.4469,0,0,0,0,0,0,2.3451,2.3481,2.3733,2.3618,2.3649,2.3702,2.3772,2.3778,2.3822,2.3882,2.3891,2.383,2.3946,2.3969,2.4102,2.4171,2.4048,2.4057,2.4452,2.446,2.4466,2.4534,0,0,0,0,0,0,2.3442,2.3479,2.3539,2.362,2.3656,2.385,2.3776,2.3784,2.384,2.3835,2.3918,2.3927,2.3944,2.4086,2.4112,2.4184,2.4066,2.4446,2.4455,2.4464,2.4526,2.4542,2.4557,0,0,0,0,0,2.343,2.3553,2.3543,2.3573,2.3732,2.3854,2.3874,2.3892,2.3846,2.3906,2.3944,2.3924,2.416,2.41,2.4129,2.4205,2.4442,2.4453,2.4463,2.4519,2.4539,2.4556,0,0,0,0,0,0,2.3479,2.3563,2.3553,2.3706,2.3773,2.3848,2.3925,2.3914,2.3994,2.3986,2.4003,2.4022,2.4156,2.4194,2.4126,2.4356,2.4294,2.4311,2.4326,2.4346,2.4361,2.4348,2.4075,0,0,0,0,0,2.3508,2.3601,2.3669,2.3797,2.3831,2.3872,2.3926,2.3933,2.4003,2.4031,2.4079,2.4146,2.4234,2.4293,2.4378,2.4531,2.4546,2.4597,2.4613,2.4626,2.4639,2.4718,2.474,2.4504,2.4504,2.4504,0,0,2.3568,2.3626,2.3683,2.3808,2.3861,2.3954,2.3896,2.3999,2.4067,2.4046,2.4174,2.4211,2.4287,2.4429,2.4494,2.4465,2.4708,2.4639,2.4649,2.4656,2.4732,2.4754,2.4774,2.4511,2.451,2.4509,0,0,2.3725,2.378,2.389,2.3944,2.4024,2.405,2.4076,2.4153,2.4177,2.4305,2.429,2.4371,2.4525,2.4578,2.4625,2.4798,2.4781,2.4826,2.4906,2.4983,2.5002,2.5018,2.5076,2.5097,2.484,2.484,2.484,0,2.379,2.3931,2.3949,2.4051,2.4105,2.409,2.42,2.4251,2.4355,2.4391,2.4357,2.4546,2.4597,2.4749,2.4791,2.4831,2.4859,2.4815,2.4998,2.5015,2.503,2.5085,2.5108,2.4844,2.4844,2.4843,2.4843,0,2.4004,2.4102,2.4182,2.4281,2.4344,2.4451,2.4482,2.4543,2.4544,2.4573,2.4701,2.4761,2.4856,2.4893,2.4896,2.5045,2.5023,2.4994,2.4931,2.5057,2.5109,2.5131,2.4851,2.4849,2.4848,2.4847,0,0,2.4198,2.4304,2.4332,2.4375,2.4461,2.4536,2.464,2.4733,2.4783,2.4855,2.494,2.5068,2.504,2.5094,2.5102,2.517,2.5298,2.5131,2.5133,2.5157,2.546,2.5479,2.5504,2.5288,2.5292,2.5295,2.5452,0,2.436,2.4544,2.4561,2.4725,2.4813,2.4799,2.4888,2.4949,2.4978,2.5056,2.5087,2.5177,2.5135,2.5166,2.5233,2.5268,2.5358,2.5258,2.5364,2.5367,2.5342,2.5532,2.5554,2.5699,2.5473,2.5477,2.5479,0,2.4574,2.465,2.4823,2.4892,2.493,2.5011,2.5095,2.5171,2.5238,2.5254,2.5312,2.531,2.5414,2.5349,2.549,2.542,2.5465,2.5488,2.5494,2.5503,2.5429,2.5542,2.5747,2.5767,2.5512,2.551,2.5507,0,2.4693,2.4839,2.496,2.4998,2.5083,2.5139,2.5177,2.5241,2.5294,2.5367,2.5401,2.5486,2.5531,2.5595,2.5615,2.5567,2.5754,2.5692,2.5767,2.5766,2.5805,2.5802,2.6016,2.5839,2.5839,2.5838,2.5838,0,2.487,2.4975,2.5014,2.5088,2.5204,2.5222,2.5336,2.537,2.5426,2.5504,2.5498,2.5571,2.5594,2.5671,2.5687,2.5799,2.5821,2.5834,2.5836,2.5833,2.5831,2.586,2.5849,2.5844,2.5843,2.5842,2.5841,0,2.5022,2.5053,2.5183,2.5252,2.5272,2.5354,2.5412,2.5482,2.5509,2.5608,2.5632,2.5674,2.5763,2.579,2.5898,2.5909,2.6038,2.6033,2.6015,2.6014,2.6087,2.6078,2.6325,2.6356,2.6162,2.6164,2.6165,0,2.5132,2.5212,2.5289,2.5341,2.5381,2.5466,2.552,2.5539,2.5595,2.5676,2.5735,2.5823,2.5895,2.6038,2.6077,2.6158,2.6153,2.6234,2.6165,2.6157,2.6149,2.6143,2.6149,2.6246,2.6248,2.625,2.6251,0,2.5322,2.5332,2.5411,2.5494,2.5558,2.5624,2.5688,2.573,2.5758,2.5821,2.5912,2.5968,2.6077,2.6163,2.6245,2.6281,2.627,2.6272,2.6293,2.6289,2.6274,2.6279,2.6047,2.6266,2.6265,2.6264,2.6263,2.6262,2.5454,2.5523,2.5587,2.5673,2.5723,2.5781,2.5849,2.5883,2.596,2.6051,2.6057,2.6155,2.6216,2.6325,2.6365,2.644,2.6416,2.6448,2.6455,2.6462,2.6466,2.6264,2.6456,2.6455,2.6455,2.6455,2.6454,0,2.564,2.568,2.576,2.5848,2.5914,2.5899,2.5967,2.6023,2.611,2.6169,2.6238,2.6341,2.6424,2.6468,2.655,2.6601,2.6597,2.6621,2.6616,2.6624,2.6484,2.6456,2.6623,2.6623,2.6623,2.6623,2.6623,2.6623,2.5745,2.5859,2.5877,2.6014,2.6053,2.6149,2.6189,2.6241,2.6288,2.6403,2.6471,2.65,2.6552,2.6636,2.671,2.6721,2.675,2.6776,2.6783,2.6652,2.6634,2.6618,2.6591,2.6783,2.6783,2.6916,2.6917,2.6918]}]]